Temp
14 15 15 15 15 16 16 16 17 17 17 17 17 18 18 18 18 18 18 18 18 18 18 17 18 20 20 20 20 20 20 20 19 19 18 18 18 18 19 20 20 20 21 21 21 21 21 21 21 21 21 22 20 20 20 20 19 19 20 19 19 19 19 19 19 18 18 18 17 16 16 16 17 17 16 15 16 16 16 15 16 16 16 16 17 18 17 16
15 15 15 15 16 16 16 17 17 17 17 17 18 18 18 18 18 18 18 18 19 18 18 18 18 20 20 20 20 20 20 19 19 18 18 18 18 18 19 20 20 20 20 20 20 20 20 20 19 19 20 21 20 20 20 19 19 20 19 18 19 19 18 18 18 18 17 18 18 16 15 16 17 17 16 16 17 16 16 16 16 16 16 16 16 16 16 15
15 15 15 15 16 16 17 17 17 17 17 18 18 18 18 18 18 18 19 19 19 19 18 18 19 19 20 20 20 20 20 19 19 18 18 18 18 18 18 19 20 20 20 20 20 19 20 19 18 18 20 21 20 20 21 20 19 19 19 19 20 18 18 17 17 17 17 17 17 16 15 16 16 16 16 16 16 16 16 16 16 16 16 16 16 13 13 13
15 15 15 16 16 17 17 17 17 18 17 18 18 18 18 18 18 18 19 19 19 19 19 19 19 19 20 20 20 20 19 19 19 18 19 19 18 19 18 19 20 20 20 20 20 20 20 19 18 19 20 21 20 20 20 20 19 19 18 20 19 17 17 18 17 17 17 16 16 16 16 15 16 16 16 16 16 16 15 16 16 16 16 16 16 13 11 12
15 16 16 16 17 17 17 17 18 18 18 18 18 18 18 18 18 18 19 19 19 19 19 19 19 19 20 20 20 19 19 19 19 18 19 19 19 19 19 19 20 20 20 20 20 20 20 19 18 20 20 20 20 20 20 18 18 19 18 19 18 16 18 18 17 16 16 16 16 16 16 16 16 16 16 16 16 17 17 16 16 16 17 16 15 13 11 11
16 16 16 16 17 17 17 18 18 18 18 18 19 19 18 18 18 18 19 19 19 19 19 20 20 20 20 20 20 19 19 20 19 19 19 19 19 19 19 20 20 20 20 20 20 20 20 19 19 21 20 20 20 20 19 17 17 19 18 17 17 16 17 18 16 16 16 16 17 16 16 16 16 17 16 16 16 17 17 17 17 16 15 15 14 13 12 12
16 16 16 17 17 17 17 18 18 18 18 19 19 19 19 19 19 19 19 19 20 20 20 20 20 20 20 20 20 19 19 19 18 19 19 19 19 19 19 20 20 20 20 20 20 20 20 20 20 20 20 20 19 19 18 17 17 19 19 17 17 17 17 17 17 17 16 16 17 16 16 16 17 17 16 16 16 17 16 17 17 15 13 13 14 13 13 12
16 16 17 17 17 18 18 18 18 18 19 19 19 19 19 19 19 19 19 20 20 20 20 20 20 20 20 20 20 19 19 18 19 19 19 19 20 19 20 20 20 20 20 20 19 19 20 20 20 19 20 20 18 18 17 17 18 18 18 17 17 17 17 17 16 17 16 16 16 16 16 17 17 16 15 16 17 17 16 16 16 15 13 14 14 14 13 12
17 17 17 17 17 18 18 18 18 19 19 19 19 19 19 19 19 19 19 20 20 20 20 20 20 20 20 19 18 19 19 18 19 19 19 19 20 20 20 20 20 21 21 20 19 20 20 20 20 19 20 19 17 18 17 18 19 17 18 17 17 17 17 17 16 16 16 16 16 16 16 17 16 15 16 18 17 17 17 16 16 15 15 15 14 14 13 13
17 17 17 17 18 18 18 18 19 19 19 19 19 19 19 19 19 19 19 20 20 20 20 20 20 20 20 18 18 19 19 19 19 19 19 19 20 20 20 20 20 21 20 20 19 19 19 19 19 18 19 18 17 17 16 17 18 16 16 16 16 16 16 16 16 16 16 16 16 16 17 16 16 15 17 19 18 17 17 17 16 15 15 15 15 14 13 13
17 17 18 18 18 18 18 19 19 19 19 19 19 20 20 19 19 19 20 20 20 20 20 20 20 20 20 18 19 20 19 19 19 19 20 20 20 20 20 20 20 20 20 20 19 19 19 18 17 17 19 18 18 17 16 16 16 15 16 17 17 16 16 16 16 16 15 16 16 16 16 15 15 15 17 18 18 17 16 17 16 15 15 15 15 15 14 14
17 18 18 18 18 18 19 19 19 20 20 20 20 20 20 20 20 20 20 20 20 20 20 20 20 20 20 18 19 19 19 20 20 20 20 20 20 20 20 20 20 20 20 19 19 19 19 18 18 19 19 18 18 18 17 15 15 16 16 17 17 17 18 16 15 16 16 17 16 15 16 16 15 16 19 18 16 15 15 16 16 16 15 15 15 15 15 14
18 18 18 18 18 19 19 19 20 20 20 20 20 20 20 20 20 20 20 20 20 20 20 20 20 20 20 19 19 20 20 20 20 20 20 20 20 20 20 20 20 20 20 20 19 19 20 19 19 19 17 17 18 17 16 15 16 17 15 16 17 18 19 17 15 15 16 16 16 16 17 18 17 17 19 18 15 15 16 16 16 16 15 15 15 15 15 15
18 18 18 18 19 19 19 20 20 20 20 20 20 20 20 20 20 20 20 20 20 20 20 20 20 20 19 20 20 20 20 20 20 20 20 20 20 21 21 21 21 20 20 20 20 20 20 20 19 17 16 17 17 16 16 16 16 17 16 16 15 16 19 17 14 15 16 16 16 16 16 17 18 18 18 16 15 16 16 16 16 16 16 15 15 15 15 15
18 18 18 18 19 19 20 20 20 20 20 20 20 20 20 20 20 20 20 20 20 20 20 20 20 20 19 20 20 20 20 20 20 20 20 19 19 20 20 21 21 20 20 20 20 20 20 20 19 18 17 16 16 16 17 17 17 15 17 18 15 15 17 16 14 15 17 16 15 16 16 16 17 17 17 16 16 16 16 16 16 16 16 15 15 15 15 15
18 18 18 19 19 20 20 20 20 20 20 20 20 20 20 20 20 21 21 21 21 20 21 21 20 20 20 20 20 20 20 19 20 20 20 19 19 18 19 20 20 21 21 20 20 20 20 20 17 16 17 17 15 16 17 18 17 15 16 17 16 15 15 15 16 14 15 16 15 16 16 16 17 17 17 16 16 16 15 15 15 15 16 15 16 15 15 16
18 18 19 19 20 20 20 20 20 20 21 20 20 20 20 20 20 21 21 21 21 21 21 20 20 20 20 20 20 20 19 19 20 20 19 19 19 18 18 19 19 19 19 20 20 20 19 18 16 16 16 15 13 15 18 18 17 15 14 15 15 14 13 14 16 15 14 15 15 15 15 15 16 16 16 16 16 15 15 15 15 15 15 15 15 15 15 15
19 19 19 20 20 20 20 20 20 20 20 20 21 21 21 21 20 21 21 21 21 21 21 20 20 20 20 20 19 19 19 19 19 19 19 19 19 18 18 18 18 18 19 19 19 19 18 17 17 18 17 14 13 15 17 16 15 15 14 14 14 13 13 14 15 15 14 14 15 14 14 15 15 15 15 16 15 15 15 15 15 15 15 15 15 15 16 15
19 19 19 20 20 20 20 20 20 20 20 21 21 21 21 21 21 21 20 20 20 20 20 19 19 19 20 19 18 18 19 19 20 20 19 19 19 19 19 18 17 18 19 19 19 18 18 18 17 17 16 14 13 13 15 15 14 14 13 13 13 13 14 14 14 14 12 14 15 14 14 14 14 14 15 15 15 15 15 15 15 15 15 15 15 15 15 15
19 19 19 19 20 20 20 20 20 20 20 21 21 21 21 21 21 21 19 18 18 17 19 18 17 18 19 19 18 19 19 20 20 19 19 18 18 19 19 17 18 19 18 18 18 16 16 18 16 15 14 13 13 13 13 13 13 13 13 13 13 13 13 14 14 13 12 13 15 14 13 13 13 14 15 15 15 15 15 15 15 15 15 15 15 15 15 15
19 19 19 19 20 20 20 20 20 20 21 21 21 20 20 19 20 20 19 18 16 15 17 17 16 18 18 18 18 17 18 20 19 18 18 18 17 19 19 17 19 19 16 15 17 16 16 17 15 14 13 13 13 13 13 13 13 13 13 13 14 13 13 14 13 13 12 12 14 13 13 14 15 15 15 15 15 15 15 15 15 15 15 15 15 15 15 15
20 20 20 19 20 20 20 20 20 20 20 21 20 19 17 17 18 18 18 19 18 16 17 17 17 18 18 18 18 17 18 19 19 18 18 17 18 19 18 17 19 18 15 16 18 18 17 16 15 13 12 12 14 13 13 13 13 13 13 13 14 14 13 14 13 13 12 12 14 13 12 15 16 15 15 15 15 15 14 14 14 15 15 15 15 15 15 15
20 20 20 20 20 20 20 20 20 20 20 21 20 18 17 17 18 18 18 20 20 18 18 18 18 18 18 19 18 18 18 18 18 18 17 17 17 16 17 17 18 17 15 16 18 17 17 16 14 12 12 13 15 14 14 14 13 13 13 14 14 13 13 14 14 12 11 11 12 13 13 15 15 16 17 16 15 15 14 14 14 14 15 15 14 15 15 16
20 20 20 20 20 21 20 20 20 20 20 20 20 19 18 18 18 18 18 19 20 19 18 17 17 18 18 18 18 18 18 17 17 17 17 16 16 16 16 16 17 17 15 15 17 16 16 15 13 12 13 14 15 14 13 14 14 13 13 14 14 13 12 12 12 11 11 12 11 12 15 17 16 16 17 16 15 16 15 15 15 15 14 14 14 14 14 15
20 20 20 20 20 21 21 21 20 20 20 20 20 19 18 19 18 18 19 19 20 20 18 17 17 18 18 18 18 17 17 17 17 17 16 15 15 16 17 15 16 18 15 15 16 17 16 13 12 14 15 14 15 15 13 13 13 14 15 14 13 13 11 11 10 10 14 15 12 12 15 18 17 16 16 16 16 16 16 15 16 16 14 15 15 15 15 15
20 20 20 20 21 21 21 21 20 20 20 20 19 19 19 19 19 19 20 20 20 20 19 19 19 19 19 18 16 15 17 19 17 17 16 15 14 16 17 16 15 17 15 14 15 16 15 13 12 14 15 15 15 14 13 12 13 15 15 13 12 11 10 10 10 11 15 15 12 12 14 16 16 17 16 15 16 16 16 16 16 16 15 15 15 15 15 15
21 20 20 20 21 21 21 20 20 20 20 19 18 19 19 19 19 19 20 20 20 19 19 20 20 19 19 17 15 16 19 19 18 18 16 16 15 15 16 16 16 16 13 14 16 16 15 15 14 14 15 15 15 14 13 12 13 16 15 12 11 11 10 10 10 11 12 13 12 12 13 14 14 17 15 13 15 16 16 17 17 16 16 15 15 15 15 15
21 21 21 20 20 21 20 20 20 19 19 19 18 19 19 19 19 19 20 20 19 20 19 19 20 20 18 16 16 18 18 17 18 18 16 16 16 15 16 15 15 15 12 14 18 16 14 15 15 14 15 15 15 14 13 12 13 16 14 11 10 10 10 9 10 11 10 11 15 13 13 14 14 16 15 13 15 17 16 17 17 17 16 15 15 15 15 15
20 20 20 20 20 20 20 20 20 19 19 19 19 19 18 19 19 19 20 20 19 20 19 19 20 19 16 16 17 17 17 17 17 17 15 16 16 15 16 14 14 15 13 14 17 15 13 14 12 13 15 15 15 14 12 12 14 14 12 11 10 9 9 9 10 11 10 12 16 14 13 14 14 15 15 15 16 17 17 17 16 17 16 15 15 15 15 14
20 20 20 20 20 20 20 20 20 19 19 19 19 18 19 19 19 20 20 19 19 19 18 18 18 16 15 18 19 16 16 17 15 15 15 14 14 14 14 12 13 16 14 14 16 14 12 11 10 12 14 13 13 12 11 11 12 12 12 13 13 11 11 11 9 10 12 15 15 13 13 13 13 14 16 16 16 16 16 17 17 17 17 16 15 15 14 14
20 20 20 20 20 20 20 20 19 19 19 19 19 18 19 19 19 20 19 18 19 18 17 17 16 15 14 15 16 15 16 16 15 15 15 13 13 13 14 13 13 16 16 15 16 15 13 13 12 12 12 11 12 13 12 10 9 12 13 14 15 14 13 14 13 12 14 16 14 12 13 13 12 14 17 16 16 15 14 16 17 17 16 16 15 15 14 13
19 19 19 19 19 20 20 19 18 18 18 19 18 17 20 20 18 18 18 18 19 17 16 16 15 15 14 14 15 14 15 16 15 14 13 13 11 10 12 11 11 16 17 15 15 16 16 15 13 12 11 11 13 15 14 12 12 13 14 14 14 14 13 14 14 14 14 15 14 13 13 13 12 15 17 16 17 16 15 15 16 16 16 15 15 14 13 12
19 19 19 19 19 19 19 18 18 18 18 19 18 18 20 21 19 16 16 17 17 15 14 14 14 14 14 15 16 13 14 15 15 14 13 13 12 11 11 10 10 14 16 14 13 15 17 16 14 14 13 11 13 15 14 15 14 14 13 13 14 13 12 13 13 12 12 13 13 12 12 13 13 15 16 16 15 15 14 13 13 13 14 15 14 13 12 12
18 19 19 19 19 19 18 18 18 18 18 18 19 20 20 20 17 15 16 16 14 13 13 12 13 15 15 16 15 13 15 16 14 14 14 13 13 13 12 11 10 11 13 13 13 13 15 16 16 16 15 13 14 14 13 13 13 12 11 12 14 13 12 12 12 12 12 12 12 12 13 14 15 16 16 14 14 14 13 13 13 13 14 14 13 13 13 13
19 19 19 19 19 19 19 19 19 19 18 18 19 19 19 18 15 15 15 13 12 13 12 11 13 17 17 15 13 12 14 16 14 14 14 13 13 12 11 11 10 10 12 14 13 12 13 15 16 14 12 13 14 13 11 12 13 12 10 12 14 13 12 12 12 12 11 10 11 12 13 14 14 15 14 13 14 16 15 14 14 15 15 14 13 14 14 13
20 20 19 19 18 18 19 19 19 18 18 19 20 17 16 15 14 14 13 12 11 11 12 13 15 17 17 16 15 14 14 14 14 15 14 12 12 12 11 11 10 10 11 13 13 12 14 16 16 14 12 13 12 12 11 12 14 13 11 13 12 10 12 12 11 10 9 10 11 11 13 13 13 15 15 14 15 17 15 13 13 14 14 13 13 14 13 11
20 19 19 18 18 18 19 19 19 18 17 19 19 16 13 12 12 11 10 10 10 9 12 16 16 15 16 16 16 15 14 15 14 15 15 13 12 12 11 11 10 9 9 10 11 12 12 14 14 13 15 13 9 9 11 10 12 14 14 13 10 9 11 11 11 11 10 10 11 11 12 11 12 13 15 15 16 15 14 13 13 12 12 12 11 11 9 8
19 19 19 18 18 18 18 19 19 18 17 16 15 13 12 12 10 9 9 9 9 9 13 16 15 14 14 15 15 14 13 15 15 14 14 14 14 12 11 11 10 8 7 8 11 11 10 13 14 12 13 13 9 10 13 11 9 12 12 11 11 12 12 11 11 11 10 9 10 12 11 10 12 13 14 14 14 13 12 12 11 11 10 9 8 7 7 6
19 20 19 18 19 18 18 19 18 16 17 16 14 13 13 12 10 9 9 9 8 11 14 14 13 14 14 13 14 13 12 14 14 14 15 14 14 12 10 10 10 9 7 7 10 11 9 12 15 13 11 12 12 13 15 14 11 10 11 11 12 12 12 11 11 10 10 10 9 11 11 11 12 13 13 13 12 10 9 9 9 8 7 6 6 6 6 5
18 20 20 19 19 19 19 20 17 15 16 14 13 13 12 12 11 9 8 8 9 11 14 13 13 14 14 13 13 12 12 13 13 14 15 13 13 13 9 8 9 9 7 7 9 10 10 11 13 14 12 12 15 15 14 14 13 12 12 12 12 12 11 11 10 10 10 10 10 9 10 11 12 12 12 11 9 8 7 7 6 6 6 6 5 5 5 5
18 21 21 19 19 19 20 19 14 12 13 12 12 12 11 11 12 10 8 7 9 11 11 12 13 13 13 13 13 12 12 13 13 13 14 13 13 14 9 6 7 7 7 10 10 9 10 11 11 12 12 14 16 14 12 13 12 12 13 12 12 12 11 10 10 9 9 9 10 10 9 11 12 11 8 7 6 6 6 6 6 5 5 5 5 5 5 4
19 20 19 18 20 20 19 17 11 9 12 12 12 11 11 10 11 11 9 8 9 11 11 12 12 12 12 13 13 12 12 14 13 13 14 13 13 13 8 4 4 4 6 10 9 8 9 9 9 11 12 13 14 11 9 10 11 11 11 11 11 10 11 11 10 10 9 8 9 9 8 10 11 7 5 5 5 6 6 6 5 5 5 5 5 5 4 4
19 20 19 18 19 20 19 16 12 10 11 10 10 10 10 10 12 12 11 10 11 12 12 13 12 12 12 12 12 12 12 13 14 14 14 13 12 10 6 4 4 4 6 9 9 7 8 9 10 12 12 12 12 10 8 8 10 11 11 10 10 10 11 10 9 9 9 8 9 8 8 10 9 5 5 5 5 5 5 5 5 5 5 5 5 4 4 4
18 17 17 18 20 21 21 18 14 13 11 11 11 11 10 10 11 12 12 11 11 12 13 13 12 12 12 10 11 13 13 13 14 13 12 13 11 6 4 4 5 5 7 8 8 7 9 11 11 12 12 12 13 12 11 10 11 12 12 10 10 10 9 9 8 7 7 9 10 7 7 10 8 5 5 5 4 5 5 4 5 4 4 4 4 4 4 3
17 17 18 17 17 17 16 14 14 14 13 13 14 12 12 12 11 10 11 11 10 10 12 12 11 11 11 10 11 12 12 13 14 12 11 12 11 6 4 4 4 5 6 4 4 6 9 10 11 12 12 11 12 12 12 12 11 11 11 10 9 9 9 9 8 7 7 8 9 7 8 10 8 4 4 5 4 4 4 4 4 4 3 4 3 3 3 3
19 20 19 18 15 13 11 9 12 15 14 15 15 12 13 14 12 9 10 11 10 10 11 11 10 11 12 11 12 13 12 11 11 12 12 12 12 8 4 3 4 4 4 3 3 5 7 8 9 11 12 12 12 12 12 11 10 10 10 10 9 8 8 8 7 7 7 7 7 8 8 7 5 3 4 4 4 4 4 3 4 3 3 3 3 3 3 3
19 18 16 18 17 16 14 12 12 14 14 14 15 13 13 14 13 11 11 11 10 10 11 11 10 11 12 11 12 12 12 11 11 12 11 10 10 8 4 3 4 4 3 3 3 5 8 9 9 9 11 12 12 11 11 10 9 9 9 8 8 7 7 7 6 6 7 6 6 7 6 4 4 3 3 3 3 3 3 3 3 3 3 3 3 3 3 3
17 16 13 14 17 17 16 14 12 13 13 12 12 12 13 14 13 13 12 12 11 11 12 13 11 10 10 9 11 12 12 13 13 12 11 9 9 9 7 6 4 2 3 4 3 4 8 10 8 8 9 10 10 9 9 8 8 8 8 7 7 7 6 6 5 5 5 5 4 4 4 4 4 3 3 3 3 3 3 3 3 3 3 3 3 3 3 3
15 15 12 11 14 14 13 12 12 14 14 13 13 12 13 14 13 11 10 12 13 12 12 14 12 10 9 8 10 12 11 13 13 11 10 9 8 9 10 10 6 3 4 6 5 4 8 9 7 6 8 9 8 9 8 7 8 8 7 5 5 5 5 5 4 4 4 4 4 3 3 4 4 3 3 3 3 3 3 3 3 3 3 3 3 3 3 3
16 17 14 14 14 12 11 11 13 16 14 12 13 13 11 13 13 11 9 11 14 13 11 12 12 10 9 9 10 12 11 11 12 10 9 9 8 9 10 10 8 5 6 7 6 5 8 9 7 6 7 9 10 10 9 8 8 7 5 4 4 4 4 3 4 3 3 3 3 3 3 3 3 3 3 3 3 2 2 3 3 3 3 2 2 2 2 2
15 14 15 17 15 12 12 12 13 16 15 12 13 13 11 12 12 11 10 9 11 12 11 10 10 9 9 9 10 12 10 9 10 10 9 8 8 9 9 8 7 7 7 6 6 6 8 8 7 7 8 9 11 11 9 8 8 6 3 3 3 3 3 3 3 3 2 2 2 2 2 2 2 3 2 2 3 2 2 2 2 2 2 2 2 2 2 1
15 14 13 17 16 11 11 12 12 14 14 11 10 11 11 11 9 10 12 10 9 10 9 8 9 10 11 13 12 10 9 8 8 7 6 5 5 5 5 4 4 5 6 5 5 5 6 7 7 7 7 9 11 10 8 8 9 6 3 2 3 3 2 3 3 3 3 2 1 1 1 2 2 2 2 2 2 2 2 2 2 2 2 2 2 1 1 1
Height
812 812 812 812 812 812 812 812 812 813 813 813 812 812 811 810 810 809 808 807 807 805 804 802 801 801 802 802 802 802 802 801 801 800 800 802 801 799 798 796 796 795 794 793 792 791 790 790 789 789 789 789 791 792 792 793 795 798 803 810 810 810 808 802 801 802 801 799 798 800 799 798 797 795 795 794 794 793 794 793 791 789 786 785 785 784 784 785
812 812 812 812 812 812 812 812 813 813 813 812 812 811 811 810 809 809 808 807 807 806 805 803 802 802 802 803 802 802 802 802 801 801 801 802 800 798 798 796 796 795 794 793 792 792 792 792 791 791 791 792 793 793 793 795 795 798 806 810 807 805 802 799 800 799 800 798 796 799 799 797 795 794 795 794 793 794 794 791 790 789 785 783 783 784 784 784
811 811 812 812 812 812 812 813 813 813 813 812 812 811 810 810 809 809 808 808 807 806 805 804 803 802 803 803 802 803 802 802 802 802 802 801 800 799 797 796 795 795 794 793 793 793 793 793 792 793 794 794 794 794 794 795 797 799 804 807 802 801 800 799 800 798 798 797 797 798 798 798 794 793 795 794 793 794 792 788 788 787 782 781 781 783 783 783
811 811 812 812 812 812 812 813 813 813 813 812 811 811 810 810 809 808 808 808 807 806 805 805 804 803 803 803 803 803 802 803 805 804 802 801 800 799 797 796 795 794 794 794 793 793 793 793 793 793 794 795 795 795 796 796 797 799 802 802 799 801 801 797 798 797 796 798 797 796 798 798 794 793 793 793 794 792 787 782 782 780 776 777 780 781 782 782
811 811 812 812 812 812 813 813 813 813 812 812 811 811 810 810 809 808 808 807 807 807 806 805 804 804 804 803 803 802 803 808 807 803 802 801 799 798 797 796 795 794 794 793 793 793 792 792 792 793 795 796 796 795 797 798 797 798 800 799 798 801 799 795 796 797 796 797 797 797 797 795 792 793 791 792 793 783 775 774 775 774 773 774 777 779 780 780
811 811 812 812 812 813 813 813 813 812 812 811 811 811 810 810 809 808 808 807 807 806 806 805 805 805 804 804 804 802 804 810 807 803 802 800 799 798 796 795 795 794 794 793 793 792 792 793 793 794 796 797 798 798 799 799 799 799 799 800 799 800 798 795 796 796 796 796 795 795 794 793 792 791 789 790 785 772 767 770 772 772 771 772 774 777 778 777
811 811 812 812 812 813 813 812 812 812 812 811 811 811 810 810 809 808 808 807 807 806 806 806 805 805 804 804 803 803 805 808 805 803 802 800 799 798 796 796 795 794 794 793 793 793 793 794 794 796 797 798 800 800 800 801 800 800 799 799 798 798 797 795 795 794 796 795 793 793 793 793 792 790 790 786 777 769 768 770 771 771 770 771 773 775 775 775
811 812 812 812 812 812 812 812 812 811 811 811 811 810 810 809 809 808 808 807 807 807 806 806 806 805 804 803 804 806 808 806 805 804 802 801 799 798 797 795 795 794 793 793 793 793 793 794 795 797 798 799 801 801 802 800 799 800 799 798 798 797 795 794 795 794 795 795 793 794 793 792 792 792 791 781 771 768 769 770 771 771 770 771 771 771 772 773
811 812 812 812 812 812 812 811 811 811 811 811 811 810 810 809 808 808 807 807 807 807 806 806 806 804 804 803 804 808 809 806 805 803 802 801 800 798 797 796 795 794 793 793 793 792 793 795 795 796 797 799 801 800 802 801 799 800 799 799 798 796 795 795 795 794 795 795 794 794 793 793 793 793 786 772 766 766 767 768 768 769 769 768 768 768 769 770
811 812 812 812 812 812 811 811 811 811 811 811 811 810 809 808 808 807 807 807 807 807 807 806 806 805 804 803 806 810 809 805 805 804 802 801 800 798 797 796 795 794 793 793 793 792 793 794 794 794 794 798 801 801 804 802 800 801 801 800 799 799 798 797 796 795 797 796 794 794 793 792 792 795 785 766 762 765 765 765 765 767 766 763 764 764 764 765
812 812 812 812 812 812 811 811 811 811 811 811 810 810 809 808 808 808 807 807 807 807 807 807 806 805 805 804 807 811 807 805 805 803 802 801 800 799 797 796 795 794 794 793 793 793 793 793 793 794 795 798 800 802 803 801 801 802 802 800 799 801 798 796 797 796 797 795 793 794 794 792 793 794 781 764 761 765 766 764 763 765 762 760 760 759 761 761
812 812 812 812 812 812 811 812 811 811 811 811 810 810 809 809 808 808 808 808 807 807 807 807 806 806 805 805 808 809 806 805 804 803 802 801 800 799 798 797 796 795 794 794 794 793 793 793 792 794 797 799 800 802 802 802 803 803 804 803 800 799 795 796 798 796 797 794 792 795 792 789 791 785 769 762 765 768 768 765 762 762 761 759 758 757 758 757
812 812 812 812 812 812 811 812 811 811 811 811 810 809 809 809 808 808 808 808 808 807 807 806 806 805 806 808 808 806 805 805 804 803 803 801 800 799 798 798 797 796 795 795 795 794 794 793 793 796 799 799 802 803 802 804 803 803 807 807 804 800 794 796 799 797 796 795 792 795 795 786 781 774 764 765 770 769 767 763 761 760 759 758 757 756 755 753
812 812 812 812 812 811 811 811 811 812 811 811 810 810 810 809 809 809 808 808 808 807 807 806 806 805 806 809 807 806 806 806 804 804 802 801 799 798 798 797 797 797 796 796 796 795 795 794 794 796 800 802 803 802 803 805 804 806 807 809 816 811 796 795 801 799 796 796 792 795 802 789 774 768 765 768 769 768 766 761 759 758 757 756 755 755 753 750
812 812 812 812 812 811 812 812 812 812 811 811 810 810 810 809 809 808 808 808 808 808 807 806 806 805 808 809 807 807 806 805 805 804 802 801 800 798 797 796 796 796 796 796 796 796 795 795 796 799 802 803 804 805 807 807 807 812 809 808 819 817 806 801 801 801 797 796 795 796 801 790 773 766 764 768 768 767 765 759 757 756 755 754 752 752 750 747
812 812 812 812 812 811 812 812 812 811 811 811 811 810 810 809 809 808 808 808 807 808 806 807 806 806 811 811 808 807 807 806 805 804 804 802 801 800 798 797 796 796 796 796 796 796 796 796 800 804 805 806 811 811 808 808 811 818 818 813 816 816 816 809 798 801 801 797 796 797 798 789 775 765 762 766 767 765 764 759 757 755 752 751 750 749 749 747
812 812 811 811 811 811 812 812 812 811 811 811 811 811 810 809 809 807 808 807 808 808 807 808 806 807 811 810 809 809 808 807 805 805 804 802 800 800 799 798 797 796 795 795 795 796 797 800 805 807 810 816 822 815 808 815 819 821 824 822 821 822 822 814 802 801 802 799 797 798 799 791 778 770 766 765 765 764 763 760 757 755 752 750 750 749 749 749
811 811 811 811 811 812 812 811 812 811 811 811 811 811 810 810 809 808 808 807 808 807 808 808 807 812 816 812 813 813 809 808 806 806 804 801 800 800 799 799 798 797 796 797 798 799 800 803 806 808 813 821 826 821 817 827 828 826 828 825 825 825 821 816 808 802 802 801 800 800 798 790 780 775 770 764 765 765 762 761 758 755 754 752 751 751 750 750
811 811 811 811 811 811 812 812 812 812 811 811 811 811 810 810 810 809 808 808 811 813 816 816 814 821 823 816 815 813 809 809 808 806 804 801 800 799 799 799 800 799 800 803 802 804 805 807 811 815 822 827 829 830 827 829 829 828 831 829 827 826 819 814 808 805 808 804 797 798 796 791 786 780 772 766 766 766 762 762 760 757 757 755 754 753 752 752
811 811 811 811 811 812 812 812 812 812 812 812 811 811 811 812 814 815 814 813 817 820 821 822 820 822 821 817 816 813 810 809 808 808 804 801 800 799 800 800 801 802 807 811 808 810 812 815 824 829 832 833 831 831 830 830 831 829 830 828 826 827 820 811 807 807 810 805 796 796 798 795 790 782 775 770 766 765 765 763 762 761 760 758 757 756 754 753
811 811 811 811 812 812 813 813 813 813 812 812 811 812 814 816 818 820 820 819 821 821 820 821 821 821 819 819 818 815 814 811 809 808 806 803 800 800 803 804 805 808 814 816 813 813 814 821 832 834 834 834 830 831 831 830 830 828 828 827 822 823 818 809 809 809 811 811 800 797 799 791 785 781 776 773 768 768 769 767 765 764 762 761 758 757 756 754
811 811 811 812 812 813 813 813 813 813 813 812 812 813 816 817 818 819 819 821 822 820 821 821 820 821 820 819 818 817 817 815 811 808 807 805 802 804 809 809 811 817 820 816 813 815 819 827 833 834 836 834 829 830 830 829 829 828 827 826 821 820 817 810 808 808 811 812 800 799 801 789 782 782 777 775 773 772 773 770 768 765 762 761 759 758 757 755
811 811 812 812 813 813 814 814 814 814 813 813 814 815 816 817 817 817 818 822 823 821 822 822 822 822 820 819 819 818 818 821 819 813 810 807 807 811 813 814 817 821 824 820 817 822 827 829 832 835 835 830 826 828 828 826 827 829 827 824 820 820 821 813 808 811 813 813 807 803 800 789 783 781 775 775 775 773 773 771 769 766 763 763 762 760 758 756
811 812 812 812 813 813 814 814 814 814 814 815 816 816 817 817 817 818 819 823 825 823 822 823 823 823 822 821 820 820 821 824 824 819 815 813 813 814 816 820 820 821 828 828 823 826 830 831 834 835 833 829 826 827 830 827 826 828 824 823 821 820 824 822 819 820 812 810 813 805 792 781 781 782 776 775 775 771 770 769 765 765 766 764 762 761 760 759
812 812 812 813 813 814 814 815 815 815 816 816 816 816 817 817 817 817 819 826 829 825 823 823 824 824 823 822 821 822 822 823 824 822 819 818 817 816 818 822 822 822 829 830 825 826 830 834 835 831 829 829 826 826 832 831 829 826 820 821 821 820 826 828 829 824 806 801 809 808 797 783 778 782 780 776 775 771 769 768 765 764 765 763 761 761 760 759
812 812 813 813 814 814 815 815 815 816 816 816 817 817 817 817 818 817 820 831 836 830 827 824 825 826 823 823 823 822 824 824 824 823 821 820 819 818 820 824 825 825 828 830 828 830 831 834 836 831 829 828 826 828 832 833 832 823 817 822 825 826 829 830 831 823 806 804 811 812 806 795 783 778 779 780 776 772 769 767 765 765 764 763 762 761 759 758
812 812 813 813 814 814 815 815 815 816 815 816 817 816 817 817 817 817 823 839 843 835 832 828 828 829 826 827 825 823 831 831 824 823 823 822 821 819 822 828 828 827 832 832 828 832 832 830 831 831 829 826 826 828 830 834 832 819 817 825 827 827 827 830 832 826 819 816 812 813 810 806 796 777 778 786 778 772 771 766 764 763 764 764 763 762 760 759
812 813 813 813 814 814 815 815 815 815 815 816 816 816 817 817 818 819 827 847 851 837 835 833 828 828 829 829 827 828 834 834 829 828 825 823 822 820 824 831 831 831 835 830 826 835 836 831 832 831 829 828 827 828 831 834 829 818 819 827 829 830 829 832 831 826 832 822 804 808 811 808 801 780 778 787 778 771 770 766 764 762 763 764 762 762 760 759
811 812 813 813 814 814 815 815 815 815 815 816 815 816 817 816 819 822 831 850 850 837 838 836 829 833 835 831 831 835 835 833 837 834 827 826 824 823 828 833 832 832 834 831 830 837 837 836 839 836 831 831 827 828 832 832 827 822 824 826 827 833 831 831 831 824 829 819 800 806 810 807 804 784 777 781 774 770 767 764 765 763 762 764 762 762 761 760
811 812 813 814 814 815 815 815 815 815 815 815 816 816 816 818 821 829 843 854 849 844 844 839 838 845 845 836 835 840 839 838 841 837 833 835 831 828 831 833 833 832 834 835 831 836 840 840 842 839 834 834 832 832 834 834 830 825 824 820 816 823 825 825 832 829 820 808 803 810 809 811 811 790 777 777 771 770 769 765 765 763 762 763 763 763 763 762
811 812 813 814 815 815 815 815 816 816 816 816 816 816 817 823 829 840 856 857 850 851 849 846 850 852 852 851 847 846 843 841 843 841 840 843 841 837 834 838 840 831 831 835 830 833 838 836 837 838 837 839 835 830 831 836 837 828 823 819 812 814 816 814 818 821 813 804 807 815 811 813 815 791 774 775 772 772 774 769 765 764 763 764 764 765 764 764
811 813 814 815 815 816 816 816 816 816 816 816 816 817 820 828 842 857 863 855 852 859 859 858 858 855 856 859 855 854 851 846 846 848 850 851 853 855 853 858 858 841 836 844 840 835 831 831 838 838 838 841 834 827 827 829 831 827 824 825 821 822 824 818 816 820 818 807 805 812 810 809 808 787 772 774 770 768 773 770 767 767 765 765 766 766 766 766
813 814 815 816 816 816 816 817 816 816 816 816 817 820 824 834 855 872 869 859 860 867 867 865 863 861 861 855 854 859 856 851 850 851 854 855 857 863 865 869 868 854 847 853 853 844 832 831 836 833 834 838 834 831 831 827 827 829 831 831 830 835 840 835 832 834 827 810 803 811 814 807 797 782 773 774 772 770 772 773 774 772 769 768 768 769 768 765
814 815 816 817 817 817 817 816 816 816 816 816 818 822 829 846 868 875 870 868 872 872 871 872 866 860 859 856 859 862 855 852 855 853 853 855 857 861 864 866 867 863 858 857 859 858 848 839 832 829 832 834 833 836 837 836 835 836 840 838 833 837 844 842 837 833 827 819 814 812 808 799 789 777 773 775 774 773 772 773 775 772 769 771 771 769 767 764
816 817 817 817 817 818 817 816 816 816 815 815 822 832 843 862 876 874 871 876 878 874 872 875 867 856 855 859 864 865 859 855 858 858 858 862 864 866 868 868 869 869 863 857 860 864 860 847 833 833 838 836 833 837 841 838 834 840 845 838 833 837 840 840 838 836 838 837 826 811 799 793 787 775 774 778 772 768 769 771 772 770 768 771 771 767 766 766
816 816 816 817 818 817 816 816 814 814 815 814 826 849 864 873 877 877 878 880 880 880 874 868 864 858 858 861 861 864 863 859 859 858 860 867 871 870 871 872 872 873 868 862 864 865 859 844 831 835 838 836 838 839 841 838 831 837 841 834 838 846 840 838 840 842 849 844 827 813 800 794 792 778 769 773 769 764 770 773 773 774 772 772 771 768 770 774
816 816 817 818 818 817 816 816 814 814 815 817 834 863 879 880 881 883 884 882 884 888 876 863 864 867 867 866 863 864 864 860 861 860 861 867 869 869 872 871 872 876 874 872 868 867 866 850 837 838 833 834 846 844 840 843 838 834 834 835 843 847 841 843 844 840 845 843 826 812 806 804 802 786 770 770 770 768 773 776 776 776 776 777 778 778 782 785
816 816 818 819 820 819 816 815 816 814 815 830 854 874 881 880 883 887 886 886 888 885 874 867 870 873 875 873 870 872 869 862 863 864 865 866 865 868 872 871 872 878 881 878 868 869 875 857 839 842 839 836 845 842 834 840 843 839 837 839 840 837 836 844 845 839 842 848 832 811 809 812 802 786 778 777 778 780 784 784 783 784 787 791 791 790 790 791
817 817 821 824 822 821 818 816 818 816 820 844 867 875 877 880 883 887 887 888 889 882 874 876 878 875 876 878 875 876 875 870 869 868 866 867 866 869 875 876 874 877 882 881 872 870 875 863 843 841 844 840 837 834 831 833 840 842 841 841 839 838 838 841 844 843 841 845 838 820 812 804 791 785 785 785 791 798 800 797 797 800 803 803 801 798 796 795
818 820 825 826 822 823 822 815 818 825 837 860 873 874 878 881 882 887 890 889 888 882 877 880 881 876 876 880 880 880 879 875 873 869 866 870 868 867 879 885 878 878 882 881 876 873 872 869 853 839 842 842 833 832 834 834 837 839 837 838 837 837 839 841 844 845 842 839 837 835 822 797 785 790 793 799 809 812 812 811 810 811 810 808 806 804 801 798
819 823 828 826 822 823 820 820 836 852 860 870 876 877 881 882 881 886 891 891 888 883 881 881 881 878 878 879 879 881 879 874 874 871 868 871 868 866 880 890 885 884 882 873 874 876 871 871 866 852 846 839 829 832 837 836 839 840 836 837 838 837 840 845 847 846 848 842 830 834 829 799 788 801 808 816 821 817 816 817 814 813 812 810 808 806 803 800
822 829 832 828 824 822 821 837 863 871 869 873 878 880 883 884 883 884 887 889 887 883 882 881 881 882 882 879 879 881 879 873 872 871 869 872 871 869 882 893 892 892 886 874 877 883 878 879 876 861 850 841 833 839 845 844 843 843 842 842 844 845 843 845 846 841 844 844 833 837 834 805 799 816 821 822 823 820 819 817 814 814 812 810 808 805 803 800
828 833 832 829 827 824 827 849 871 874 875 882 884 885 886 885 883 882 884 885 883 881 880 880 881 882 881 882 882 880 878 874 871 870 870 872 874 879 889 894 893 893 889 878 879 885 881 880 874 856 845 841 836 840 848 850 845 840 841 845 845 844 842 844 847 845 844 839 834 843 835 805 804 823 822 820 822 820 818 817 816 816 812 810 808 805 802 799
833 835 834 830 826 823 831 851 866 873 879 882 881 883 886 885 884 882 883 884 884 883 879 879 884 883 883 887 885 880 879 875 871 874 875 873 877 889 895 894 892 891 888 882 884 886 877 871 869 859 850 844 835 836 839 841 843 837 836 842 843 843 847 849 851 855 850 831 825 840 830 800 804 821 820 818 821 818 818 819 817 817 814 811 808 805 803 799
833 835 837 835 829 831 846 860 864 869 877 877 877 882 883 883 886 887 885 886 889 889 883 883 887 887 887 889 885 882 883 879 875 878 880 876 878 890 896 894 894 892 891 893 895 890 879 874 871 863 861 860 854 849 842 839 843 839 834 840 844 846 849 847 848 854 850 834 827 832 818 797 807 824 823 822 824 822 821 819 816 815 813 810 807 804 801 798
833 838 843 844 842 846 861 871 867 866 872 872 875 883 882 879 885 890 889 887 889 891 888 887 888 886 886 886 884 882 883 885 884 881 880 876 875 886 895 895 895 895 894 897 896 891 886 883 876 866 861 861 856 850 847 849 852 847 839 840 845 850 851 850 853 854 849 843 834 824 817 816 826 834 831 829 830 826 823 820 817 815 811 808 806 802 798 796
837 848 854 852 851 856 863 871 872 869 872 872 875 883 885 882 885 887 887 888 890 891 889 890 891 888 888 888 887 884 882 885 886 881 881 884 881 885 894 896 895 895 895 897 896 892 885 876 875 873 863 855 853 852 851 856 859 853 849 848 849 852 853 855 858 852 847 850 842 829 831 838 839 839 837 835 834 830 825 822 820 817 813 810 805 800 796 792
842 855 863 857 857 864 865 869 875 874 875 878 882 886 886 884 886 887 887 888 889 890 887 887 892 895 898 897 891 887 885 880 879 879 882 888 887 883 884 890 895 897 896 895 896 894 884 874 877 880 868 859 862 861 857 862 862 855 856 860 859 857 858 859 859 854 852 856 852 845 846 845 841 841 840 838 836 833 827 823 821 817 812 808 803 799 793 789
848 855 864 861 862 871 875 877 877 874 875 880 883 887 887 885 889 894 896 890 886 890 889 885 890 896 900 901 894 890 889 884 880 883 886 888 889 885 878 879 888 897 895 890 893 895 885 875 881 886 875 863 861 859 858 862 859 854 862 871 870 867 867 865 862 861 859 857 855 855 852 845 842 843 841 838 835 831 826 820 817 813 808 804 799 794 789 786
846 849 858 861 866 875 879 880 876 870 877 883 882 888 893 889 890 896 899 894 886 890 893 890 892 896 899 900 895 888 891 890 886 888 890 890 890 888 882 878 884 892 891 887 891 893 881 874 882 886 874 858 850 850 855 857 855 860 871 877 875 871 871 869 865 864 864 860 857 856 852 847 843 841 839 835 830 827 822 817 812 808 804 799 795 791 788 785
844 847 850 853 866 878 878 880 880 873 878 886 886 890 893 892 894 896 897 899 896 893 895 896 896 898 898 897 893 888 891 894 891 890 891 891 889 886 884 886 890 890 889 890 892 890 884 880 881 882 874 857 843 844 852 854 854 866 881 882 878 878 877 873 870 867 867 866 862 858 857 853 845 840 837 833 828 826 821 815 810 805 801 798 794 792 789 786
845 848 849 849 865 883 882 882 883 878 883 894 895 894 894 894 900 898 892 897 901 898 899 901 899 897 891 887 887 889 892 894 893 892 893 893 894 894 893 895 897 895 892 895 895 894 893 887 882 885 878 856 842 847 855 849 843 859 884 889 882 882 881 875 870 866 865 866 866 865 861 854 845 841 836 830 827 824 819 814 809 804 800 797 795 792 789 785
Wind_Speed
3 3 2 1 1 2 3 3 2 1 1 2 4 5 7 8 8 8 8 7 9 13 16 16 9 1 4 3 1 1 4 6 7 15 14 11 17 18 15 11 11 11 10 10 10 8 8 8 9 13 12 5 1 1 1 1 3 3 3 2 2 3 4 4 5 4 3 4 5 5 7 9 5 4 1 2 3 5 4 5 5 6 8 8 7 6 6 13
2 1 1 2 3 4 4 2 2 1 2 3 5 6 7 7 7 8 7 5 8 12 14 15 11 5 5 3 1 2 5 5 5 10 13 15 18 18 15 11 10 10 10 9 8 7 5 5 8 11 7 2 2 1 1 1 2 2 3 1 4 5 5 5 5 4 3 4 5 6 6 7 6 5 3 2 6 5 6 7 5 8 10 11 9 7 11 19
2 3 3 4 5 4 4 3 2 1 2 4 6 6 7 7 7 8 6 4 7 10 12 13 11 7 4 1 2 4 5 4 4 7 13 17 18 17 16 12 9 9 8 7 8 8 5 6 7 6 3 2 2 1 1 1 0 2 3 1 6 5 4 4 5 5 5 4 4 5 5 5 6 4 3 4 7 6 9 10 7 10 13 12 8 7 14 21
5 5 5 6 5 4 4 3 2 2 4 6 6 5 5 6 8 8 4 3 6 8 10 10 8 6 3 3 4 5 5 5 2 7 12 16 17 16 14 11 8 8 7 6 8 9 8 7 4 1 2 2 4 3 2 1 0 1 3 4 6 3 2 5 6 5 5 4 5 4 3 4 6 3 3 3 4 7 11 12 12 15 16 13 8 8 14 17
6 6 6 5 5 4 3 2 1 3 5 5 4 4 5 6 9 9 5 2 4 6 8 8 6 6 4 5 7 7 5 5 4 8 13 16 18 15 10 8 6 6 6 6 8 8 6 4 2 3 2 1 4 4 0 2 1 1 3 6 5 3 2 7 5 5 4 2 3 3 4 5 3 2 5 6 6 10 9 11 15 15 15 12 9 10 12 13
6 6 5 5 5 4 2 0 2 4 5 3 2 3 4 6 9 9 6 3 3 5 7 7 6 7 6 5 8 7 4 2 6 9 14 17 18 14 9 6 5 5 7 7 8 6 4 4 3 1 2 1 2 1 2 4 2 1 4 3 5 4 4 5 3 4 2 2 3 6 4 2 1 4 6 9 13 16 8 6 11 13 15 13 10 10 11 12
6 5 5 5 4 3 1 1 4 4 2 1 1 3 5 7 9 9 6 3 3 4 5 7 8 9 8 7 7 5 6 1 7 10 14 18 17 13 8 5 5 6 8 8 9 5 3 5 2 2 3 1 2 1 2 5 3 1 4 4 4 5 5 5 3 4 2 4 5 3 2 2 5 5 2 7 16 18 12 5 7 10 13 13 8 9 12 14
6 5 5 4 3 2 1 3 4 2 0 0 2 4 6 8 9 8 6 3 2 3 5 7 8 10 9 5 2 4 3 3 8 11 14 17 14 12 8 5 6 8 7 6 5 2 1 4 2 1 2 1 2 2 2 4 3 2 4 4 3 3 5 5 4 5 4 4 4 1 4 5 7 3 5 13 18 15 12 8 7 7 8 8 8 11 12 12
5 4 4 3 2 1 3 3 2 1 1 1 3 6 8 9 7 6 5 3 2 3 6 7 7 11 8 2 5 4 4 5 8 11 14 16 13 12 12 10 9 8 5 4 4 3 2 2 1 1 2 2 2 1 2 3 2 3 4 3 3 4 6 4 4 6 5 4 1 1 6 7 5 4 7 17 18 13 9 8 10 8 8 9 9 10 11 12
4 4 3 2 1 2 2 1 1 2 1 2 4 8 9 7 5 5 4 2 3 4 6 6 7 11 7 3 6 4 4 5 9 11 13 15 12 12 16 16 13 9 4 4 6 5 2 2 3 1 4 3 2 1 1 1 2 3 2 4 4 6 6 2 4 5 4 4 2 3 7 7 5 2 5 14 12 5 4 8 8 8 11 13 11 10 10 11
4 4 2 1 1 1 1 1 2 3 2 3 6 9 7 5 7 8 6 4 4 4 5 6 7 8 7 6 6 3 4 6 9 12 14 14 12 10 13 14 14 12 5 4 6 4 1 4 3 2 1 0 1 1 2 2 0 1 2 6 7 6 6 4 5 6 2 3 4 5 7 7 3 1 9 17 9 3 5 9 8 7 11 12 12 12 9 10
4 2 1 0 0 0 1 2 3 2 2 4 6 8 5 3 6 6 5 5 4 5 5 6 8 5 4 6 5 1 5 8 10 13 14 14 12 8 9 11 12 11 7 4 5 6 4 3 2 4 1 0 0 2 1 1 2 2 4 5 8 8 7 5 4 4 2 2 3 4 5 6 3 7 15 16 8 7 7 10 10 9 9 10 10 9 8 10
3 2 1 0 0 1 2 3 3 2 3 5 7 6 4 3 5 5 3 3 3 5 5 5 7 5 2 3 1 3 7 10 11 13 14 14 12 7 6 8 8 9 7 5 4 6 8 3 5 5 1 3 0 1 1 2 3 2 3 3 5 8 6 4 3 2 1 2 2 2 4 8 8 12 15 11 7 7 8 9 10 9 8 8 8 7 8 10
2 2 1 0 0 1 2 2 2 2 4 6 5 5 5 4 4 3 2 2 2 4 5 4 7 5 3 0 2 5 8 10 11 14 16 16 16 11 7 7 6 6 6 4 4 5 7 5 7 6 2 4 0 1 3 5 4 2 3 3 3 4 5 7 5 1 1 2 3 4 2 8 13 14 12 7 5 6 10 13 11 9 8 7 7 7 9 9
3 2 1 1 1 2 2 2 1 2 4 5 5 5 5 5 4 2 1 1 2 5 4 2 6 4 3 2 2 6 9 9 12 15 16 17 17 14 12 12 8 5 5 5 4 5 6 5 6 4 1 3 3 3 4 4 4 3 4 4 4 3 6 11 6 2 2 4 3 3 3 8 13 15 10 3 5 8 12 15 12 10 9 8 7 7 8 9
4 2 1 0 2 2 2 1 1 2 3 3 4 4 6 5 4 3 1 1 1 5 5 3 6 4 4 2 4 6 6 7 14 14 15 18 13 10 13 14 8 5 7 5 4 4 5 6 4 2 2 5 5 4 4 4 5 4 4 4 5 4 6 8 6 1 1 4 3 1 3 7 11 15 14 9 9 10 10 12 12 10 9 8 7 6 7 8
3 1 1 2 3 3 2 1 1 2 3 2 2 4 7 11 9 3 5 3 1 3 5 5 5 3 3 3 3 6 7 11 15 12 18 21 9 7 11 8 5 8 11 6 2 3 4 5 1 0 4 5 2 3 6 6 5 4 4 3 3 3 4 5 6 5 5 2 4 1 3 10 14 16 18 15 10 9 9 10 11 9 8 7 6 6 5 6
2 1 2 3 4 4 3 2 1 1 2 1 2 3 6 10 14 10 1 3 3 3 4 6 6 4 2 5 3 8 13 15 15 12 22 23 8 8 9 3 4 9 9 5 5 4 3 3 2 2 5 5 4 6 6 3 3 4 4 3 4 4 4 6 6 4 7 4 5 3 4 12 16 16 17 15 10 8 8 7 7 7 7 6 6 5 5 6
1 2 3 4 4 4 4 3 3 3 2 2 2 2 1 3 7 14 16 9 2 2 1 3 4 4 3 5 6 14 15 11 9 11 24 25 12 9 5 1 4 6 5 4 4 5 2 4 5 5 5 6 4 3 2 3 4 4 4 3 4 5 5 7 7 4 5 6 6 5 6 11 15 16 15 15 10 6 5 6 6 7 8 7 7 7 6 8
0 1 3 3 4 5 6 6 5 3 2 2 2 2 1 3 3 6 12 11 3 2 2 1 0 2 3 5 9 16 11 6 6 11 26 25 12 7 5 5 6 6 6 2 3 3 4 6 5 3 4 5 6 4 3 3 4 2 2 2 5 5 6 8 6 5 4 5 6 5 6 10 12 13 12 12 8 7 7 8 8 7 7 6 7 8 8 8
1 1 2 3 4 6 8 7 5 3 2 1 3 3 1 2 4 1 2 4 1 1 3 1 1 0 3 4 9 12 5 4 5 11 26 23 7 4 4 6 7 6 7 4 2 4 6 7 4 4 6 7 6 4 2 1 1 1 2 3 6 4 6 8 5 5 6 6 6 4 8 12 10 9 10 9 7 8 6 6 7 6 6 6 7 8 7 5
2 1 2 2 5 8 9 7 7 5 4 4 5 6 4 4 4 2 2 2 2 2 4 3 3 3 4 2 7 8 3 6 8 12 26 22 7 4 3 5 7 3 7 5 3 6 6 6 5 7 5 4 4 3 3 1 1 2 2 2 5 4 5 8 4 5 7 3 5 7 8 10 9 7 8 8 6 4 5 4 3 4 7 6 6 6 7 7
2 2 3 3 7 10 8 6 7 7 7 7 8 7 6 4 3 1 2 4 1 3 4 4 4 4 5 3 8 9 5 5 6 11 22 18 6 4 3 6 6 2 6 6 5 5 4 3 6 5 3 4 5 6 7 4 2 2 2 2 5 5 4 5 4 8 11 3 4 7 6 7 7 6 6 7 4 3 5 4 3 3 5 3 3 3 6 8
1 2 3 5 8 10 8 4 4 7 7 6 7 7 6 5 4 2 2 3 1 2 1 1 2 2 3 3 8 7 3 2 2 8 18 13 5 3 4 3 4 5 6 4 7 8 2 4 4 4 6 5 3 5 7 6 6 4 2 1 6 6 3 4 5 9 10 3 1 5 6 4 4 5 5 6 6 5 5 5 5 5 4 3 2 3 4 5
1 2 4 6 9 10 8 4 2 4 4 3 6 6 5 4 4 4 3 3 3 3 2 1 1 3 3 3 8 4 2 2 2 5 11 10 5 3 3 1 3 6 6 2 7 7 1 4 3 4 6 6 5 4 4 3 5 6 3 3 5 7 5 6 7 8 6 4 3 5 5 5 4 4 6 5 6 6 5 6 6 6 6 5 4 5 4 2
3 4 5 7 9 10 7 4 2 1 1 1 4 4 2 3 4 5 3 4 3 4 5 3 1 7 8 6 8 2 4 4 3 4 9 11 5 1 4 3 2 5 3 2 5 2 2 4 3 4 4 6 7 4 2 2 5 5 3 4 4 5 6 7 6 4 3 4 4 4 4 4 7 5 6 5 6 7 6 6 6 6 6 5 4 5 4 3
5 6 6 8 10 10 5 2 3 3 1 1 1 3 3 2 3 5 3 5 4 2 4 4 2 7 8 8 8 4 3 6 4 8 11 12 7 1 5 5 3 4 2 3 4 1 2 7 7 6 5 7 7 5 2 2 4 4 4 2 3 7 8 6 3 1 1 3 5 4 3 2 5 6 6 4 6 7 6 7 7 6 6 5 5 5 5 4
6 8 8 8 10 9 5 2 3 3 1 2 3 3 5 4 2 2 5 4 3 1 1 4 4 6 7 9 9 6 1 5 3 8 14 15 10 2 5 5 1 3 4 6 3 3 2 5 6 5 6 6 4 5 4 2 1 6 6 3 5 6 5 2 2 1 1 2 4 5 2 1 5 7 5 2 4 7 7 7 7 7 7 6 6 6 6 6
8 9 9 9 9 8 4 2 1 0 3 5 5 1 5 3 1 3 6 3 2 2 0 2 5 6 8 8 8 5 3 4 3 6 12 15 15 6 4 2 3 2 5 6 5 3 2 0 2 1 4 3 5 6 3 3 2 7 6 5 3 1 1 2 4 1 2 3 3 5 1 2 5 7 6 4 2 6 7 6 7 7 7 6 6 6 6 6
9 11 11 10 9 6 2 0 3 4 5 4 2 3 4 3 4 6 5 2 1 3 2 3 3 4 8 8 7 6 5 4 3 5 7 7 12 10 4 1 4 6 5 5 5 2 3 2 2 2 2 2 5 6 2 5 5 5 6 5 4 4 3 3 3 3 4 2 5 6 2 3 3 7 5 3 3 4 5 6 7 7 7 6 5 6 6 6
10 12 11 9 8 5 3 2 5 5 4 3 4 4 3 2 4 7 3 1 1 4 4 5 4 4 8 6 4 6 5 5 5 6 6 4 8 10 6 5 5 5 6 6 6 6 4 3 1 2 2 0 3 5 2 1 2 4 5 4 5 5 4 4 5 4 4 4 6 6 2 4 2 6 5 6 7 6 6 7 7 7 7 6 5 5 6 6
10 10 10 8 6 4 2 3 4 4 4 3 3 3 3 3 5 4 1 3 2 3 3 3 4 5 6 4 5 6 4 5 5 5 4 4 6 7 7 6 3 4 6 5 6 7 3 1 3 5 2 0 3 4 5 4 5 6 5 5 6 5 5 5 5 3 1 6 5 3 2 1 5 8 7 9 10 9 7 7 7 7 7 7 5 5 6 6
10 8 8 5 1 1 1 3 2 3 2 1 2 5 6 6 4 1 3 3 1 2 2 2 4 5 5 5 6 6 3 3 5 5 3 3 5 5 4 5 3 3 2 2 4 6 4 5 6 5 2 0 3 4 5 5 5 6 3 3 4 3 4 4 4 3 4 8 5 0 0 2 5 6 7 8 10 10 8 6 6 7 7 7 6 6 7 6
11 7 7 7 6 4 4 3 2 2 3 2 4 6 9 6 0 1 3 3 1 3 2 1 5 6 5 4 3 4 3 3 4 6 5 4 5 5 5 6 7 4 2 2 3 3 4 5 4 2 2 2 3 1 1 1 2 4 2 4 3 3 1 3 3 2 5 8 7 3 2 3 4 5 6 7 8 8 6 4 5 6 6 5 6 7 6 7
14 13 13 14 13 10 7 4 3 4 2 7 8 7 8 3 3 1 2 4 2 4 4 3 4 5 5 4 3 3 2 3 4 5 5 5 3 3 4 5 6 4 3 3 2 1 2 5 8 4 1 1 1 1 2 2 2 3 2 3 2 2 4 2 4 5 3 5 6 3 2 5 4 7 8 6 6 7 5 4 6 8 7 5 6 7 6 6
17 17 17 18 19 16 9 4 5 2 4 8 9 6 3 2 2 2 2 2 0 2 4 5 5 5 5 5 4 6 4 2 4 5 4 3 1 2 3 3 3 4 3 2 1 1 2 6 8 5 2 2 3 2 0 1 1 2 2 1 2 3 6 2 3 3 3 2 4 2 4 5 4 7 8 6 7 8 8 7 8 8 8 7 7 7 6 7
14 14 14 21 24 19 11 5 2 5 7 8 8 4 1 2 2 3 2 1 0 1 3 4 3 4 4 4 4 8 7 4 4 4 3 2 1 2 3 3 2 2 2 1 1 1 0 5 7 3 2 3 1 1 2 1 2 1 1 3 2 1 4 3 1 4 4 2 4 4 5 5 4 6 7 8 9 11 11 10 10 10 10 10 10 10 10 12
6 7 10 20 24 18 9 4 7 9 8 9 8 4 1 1 2 3 2 0 0 1 5 3 1 2 2 1 4 7 6 4 5 4 2 2 2 1 1 3 2 3 3 2 1 1 1 3 8 3 3 7 3 3 4 4 0 1 2 3 1 2 2 2 1 2 3 4 5 7 8 4 3 5 5 8 10 12 13 13 14 16 17 16 15 16 15 15
3 3 4 17 22 14 9 9 10 9 8 7 5 2 1 1 2 3 2 1 1 3 5 2 1 3 2 1 1 5 3 2 3 3 2 2 2 1 4 1 3 2 4 2 1 1 1 0 6 5 3 5 4 4 3 5 5 4 2 2 2 2 4 1 0 1 2 4 4 6 9 5 5 5 4 9 12 15 16 16 17 19 20 16 15 15 15 14
3 3 2 17 18 7 12 20 14 9 7 5 3 2 1 1 2 2 1 1 0 2 2 0 1 3 2 1 0 2 2 1 1 1 1 1 2 1 2 1 2 4 6 3 2 1 2 1 4 6 5 4 3 1 2 3 4 3 3 3 3 2 1 1 1 2 2 3 3 3 7 8 5 1 6 13 15 16 17 16 15 16 16 15 14 14 12 12
4 4 4 19 16 1 6 19 13 4 5 4 2 2 1 1 1 3 1 1 0 0 1 3 2 1 0 1 1 1 2 2 1 1 1 1 1 2 1 2 1 3 4 3 3 2 1 1 2 6 5 4 6 5 4 4 4 3 2 2 3 2 1 2 4 3 1 3 4 3 7 10 5 6 11 13 13 14 16 15 13 14 14 13 12 12 12 11
6 4 5 16 12 10 12 10 4 3 5 3 2 2 2 2 2 3 2 1 1 0 2 3 2 1 2 1 1 1 1 2 1 0 0 1 1 1 2 2 3 1 1 1 2 1 0 2 0 5 5 6 12 7 1 1 3 4 3 2 2 1 2 1 5 5 3 2 3 1 5 8 4 11 11 10 11 12 14 14 13 13 13 13 13 13 13 13
4 3 6 14 6 9 15 7 3 5 4 0 1 2 1 2 1 2 2 2 1 1 2 1 0 1 1 1 0 0 1 1 2 1 1 2 2 2 3 3 2 2 2 1 2 2 1 2 1 6 5 6 9 5 4 2 3 1 3 1 2 1 2 4 6 2 2 6 4 1 5 6 4 11 10 10 13 14 14 15 15 14 14 14 14 13 13 14
3 2 6 17 9 3 7 5 2 4 2 0 3 3 2 1 2 2 2 2 2 1 2 1 1 1 1 0 1 1 2 1 1 2 1 1 1 1 2 3 2 1 1 1 1 2 2 0 2 4 7 8 8 7 5 3 2 2 5 1 3 0 2 2 2 1 2 8 7 4 7 7 3 11 13 15 18 17 16 16 14 13 15 16 14 13 13 13
4 2 4 17 21 12 5 4 6 5 3 3 5 3 3 2 2 1 1 2 1 1 1 2 1 1 2 2 3 3 2 2 1 2 3 2 3 2 1 2 2 1 0 1 1 1 2 1 2 2 3 7 7 7 7 6 5 5 7 5 1 1 3 4 3 2 4 6 6 5 9 8 7 16 18 18 20 18 16 18 16 14 17 17 16 15 14 13
3 4 2 9 15 11 4 1 5 6 4 4 4 3 2 2 1 1 2 2 2 1 2 2 2 2 3 5 4 4 3 2 2 2 3 3 4 2 1 1 1 1 1 2 2 2 1 1 2 5 5 5 7 9 6 3 5 9 13 15 9 3 3 2 1 4 5 6 8 8 9 10 10 16 18 18 20 18 15 17 18 17 17 18 18 18 16 14
3 3 2 2 4 5 5 5 5 4 3 4 3 1 2 3 3 2 1 1 1 2 2 2 4 4 3 4 4 3 5 4 3 2 2 4 4 4 2 2 1 2 0 1 1 2 3 3 4 6 8 10 10 11 10 5 6 12 13 14 13 11 9 5 5 8 7 6 7 8 13 11 9 14 18 18 19 18 16 16 17 16 15 16 18 19 19 16
3 3 1 1 2 2 3 3 4 6 5 4 3 2 3 4 3 2 2 2 2 2 1 3 5 4 1 2 2 3 6 6 5 3 3 3 4 5 4 1 1 3 1 1 2 2 4 3 4 3 7 12 10 11 12 8 7 9 8 9 13 14 12 9 8 9 8 5 5 11 14 11 9 14 18 18 16 17 18 15 14 15 15 16 18 19 18 15
4 4 1 2 4 3 2 2 4 7 7 5 3 3 3 4 4 1 2 2 4 4 3 3 6 6 3 2 2 1 3 2 4 5 2 2 3 3 4 2 0 2 1 1 2 1 3 3 4 2 6 12 11 10 9 6 6 7 6 8 10 9 9 9 7 7 7 4 5 12 14 11 10 11 14 15 13 13 15 14 14 17 18 19 20 18 15 15
3 4 1 4 5 2 1 3 4 5 5 4 4 3 2 3 3 1 1 3 2 4 4 3 6 7 3 3 4 1 3 5 4 6 3 2 4 2 2 2 2 3 4 2 2 1 0 3 3 2 5 12 10 4 3 5 7 5 7 10 11 11 12 13 9 6 6 5 8 13 12 10 11 11 13 14 12 12 15 17 18 19 21 22 20 17 16 19
5 5 6 7 4 4 3 3 4 5 4 4 2 1 1 1 0 0 1 0 2 1 1 1 5 6 2 1 1 4 6 7 8 10 7 4 5 3 2 1 1 3 5 2 1 3 2 3 4 5 5 11 9 6 9 10 5 3 9 14 14 11 13 13 7 3 5 6 10 12 11 10 12 13 14 15 15 15 17 18 18 19 20 20 18 17 18 20
7 5 5 7 4 3 3 3 4 4 2 2 0 0 1 0 2 1 2 1 1 2 3 3 2 2 3 5 5 4 6 7 8 8 5 5 6 4 3 2 2 1 2 1 1 1 2 1 3 4 4 10 12 12 13 11 6 3 6 11 12 10 12 14 9 6 5 5 7 8 9 12 14 14 16 17 18 17 16 16 17 18 18 17 16 18 18 19
Wind_Direction
240 231 229 217 153 137 139 140 148 123 39 6 351 343 339 337 337 342 343 357 14 13 13 11 14 116 156 151 160 355 354 344 356 25 35 5 354 353 344 335 337 338 335 338 339 340 340 339 344 354 360 10 50 123 85 63 80 58 88 136 257 217 213 201 198 209 193 262 252 216 194 179 213 232 203 10 213 229 251 247 250 264 254 239 245 236 204 179
216 184 152 124 125 126 127 123 116 85 36 351 344 339 339 341 338 344 347 6 19 15 14 17 31 75 130 150 222 320 341 349 18 27 16 1 2 356 341 333 331 332 335 343 348 359 1 328 339 360 11 3 327 59 65 6 96 112 127 180 239 207 218 200 198 218 204 241 225 216 217 197 209 201 157 219 235 233 243 254 251 261 263 254 254 223 187 172
132 121 114 116 122 118 115 110 105 71 0 340 340 342 346 346 341 342 345 10 19 16 15 22 41 67 102 144 306 334 342 17 40 359 356 1 2 354 342 328 322 329 331 335 339 343 329 300 326 360 20 331 307 66 71 357 100 166 133 224 245 216 237 233 210 218 228 224 191 219 219 213 228 185 148 225 244 243 230 236 227 240 248 241 233 188 179 172
114 113 114 116 118 115 118 116 95 7 341 338 342 352 359 358 0 356 348 5 14 16 16 22 41 58 57 8 355 340 357 40 10 322 349 2 358 353 343 325 325 328 323 321 320 323 314 304 314 46 61 316 313 47 90 290 281 162 143 201 232 203 256 248 217 225 243 213 190 211 170 222 240 185 188 186 236 259 236 229 216 223 234 226 212 187 184 179
116 117 119 122 124 127 126 122 9 341 336 342 354 10 16 12 13 11 2 340 1 12 13 20 34 38 22 6 357 337 14 47 312 326 358 1 357 353 344 333 337 328 328 324 310 315 317 319 41 66 48 305 326 23 141 276 83 179 224 208 214 161 234 255 227 230 245 214 205 187 173 222 216 188 222 178 206 246 231 222 217 222 232 222 202 192 190 189
128 130 131 136 135 141 143 128 329 335 337 353 23 19 15 5 4 9 7 324 344 9 17 24 19 12 1 352 350 347 74 108 304 346 3 1 357 351 345 333 341 343 338 330 322 333 352 5 34 58 44 28 328 329 245 311 44 248 275 252 233 200 216 253 231 232 205 125 193 189 210 247 201 256 234 194 225 243 232 203 211 223 231 227 206 188 192 198
142 145 144 147 147 158 179 315 324 332 342 34 24 0 356 350 350 358 0 327 336 14 21 19 7 0 343 328 342 16 86 195 315 359 3 1 357 352 352 339 353 347 335 338 343 346 22 24 8 150 83 15 272 205 271 318 33 152 264 284 253 219 221 231 223 251 184 174 220 211 280 288 218 248 283 222 237 247 252 240 221 230 234 232 213 194 201 204
153 153 153 155 160 174 287 314 321 330 120 67 345 345 342 339 338 345 354 329 325 5 0 2 3 358 341 326 4 39 44 301 330 1 0 359 1 8 10 356 0 347 345 357 354 339 54 39 12 139 67 290 203 168 326 329 8 142 227 270 275 240 247 246 250 273 261 232 248 300 284 255 222 239 314 265 256 257 255 253 246 246 248 238 219 210 209 210
156 158 161 159 173 251 308 310 313 183 188 308 331 338 339 341 340 344 352 329 331 345 348 3 6 359 354 33 89 55 327 315 349 357 357 359 3 20 25 20 7 349 7 32 26 47 82 86 281 205 162 207 162 159 336 349 300 212 214 261 276 276 282 271 262 269 273 270 247 267 277 276 266 283 288 266 261 268 259 241 240 237 244 240 225 218 209 213
162 163 162 169 233 294 304 292 189 184 222 308 330 341 350 6 33 40 37 24 8 354 354 7 2 6 19 71 79 51 317 344 9 359 356 360 2 19 26 21 12 9 31 37 31 46 90 183 238 182 140 157 123 112 205 160 230 218 234 279 274 294 305 280 263 281 295 291 235 237 277 284 295 309 271 268 262 273 284 257 245 227 239 241 232 227 214 215
167 164 166 219 279 302 286 176 183 199 252 312 334 347 1 31 48 46 54 60 36 22 10 7 5 19 51 76 86 75 326 356 7 2 357 356 0 7 14 12 9 15 21 31 32 28 351 227 214 135 102 141 135 345 246 206 323 341 350 315 309 328 313 281 275 286 306 288 221 198 269 280 304 191 241 260 268 352 326 284 273 239 240 245 238 236 224 224
167 172 176 249 295 290 179 171 191 210 275 324 341 351 9 35 30 39 69 71 46 35 22 12 10 6 51 69 83 75 347 359 356 359 354 348 352 345 353 356 355 4 10 40 28 12 4 270 132 84 318 163 189 336 282 246 29 5 34 336 313 352 343 310 296 274 176 251 226 169 293 296 239 226 242 256 282 340 320 285 281 263 252 255 247 245 236 236
174 168 133 100 51 192 177 180 197 236 303 333 341 357 25 25 26 49 87 82 61 35 23 23 8 347 52 65 26 12 359 355 351 352 350 345 346 331 336 342 338 351 360 34 23 22 28 13 91 93 113 94 293 290 86 11 25 303 25 28 322 358 343 317 342 329 155 255 327 76 314 296 258 242 250 268 311 334 309 284 282 275 266 263 254 252 247 243
160 141 114 34 314 189 176 177 205 281 324 346 357 25 38 25 32 59 92 89 84 13 356 21 9 359 72 34 296 3 349 348 354 353 352 345 343 339 341 345 341 339 319 331 358 18 22 22 79 87 84 81 276 302 24 2 18 316 348 38 14 6 297 307 333 308 291 308 27 73 245 279 282 276 267 278 323 327 307 295 288 280 274 267 259 252 251 248
142 124 68 18 197 176 166 174 238 311 339 5 41 58 37 27 24 27 130 131 60 13 353 11 8 20 77 358 320 350 338 348 357 356 357 346 340 338 337 339 339 347 314 297 322 353 5 16 63 73 335 18 35 23 0 352 12 22 18 340 343 9 297 313 326 172 246 306 41 91 242 273 282 288 290 305 322 307 299 294 292 290 278 270 264 251 252 255
131 103 46 118 166 157 160 179 277 327 346 12 47 39 27 29 358 324 188 176 24 15 20 9 356 49 94 342 324 346 339 341 344 347 354 347 333 317 322 328 327 344 334 306 281 311 6 32 60 98 50 25 32 32 22 22 355 3 39 326 305 342 320 321 328 11 341 302 343 78 246 278 284 294 305 317 314 301 293 293 299 300 287 280 272 261 261 267
122 91 71 140 150 147 165 174 247 316 349 8 24 37 57 53 30 327 233 251 294 334 15 18 357 63 83 340 329 339 325 326 332 333 349 353 341 311 323 326 335 335 335 348 350 326 10 36 48 334 47 43 20 42 46 22 335 331 24 350 290 301 309 317 314 330 21 351 298 321 229 265 280 296 306 312 319 311 304 305 308 311 310 305 297 294 296 292
115 103 126 151 158 155 163 162 150 357 11 355 5 83 87 56 45 46 18 250 248 307 359 5 18 78 4 344 334 313 312 319 328 330 348 357 350 328 332 313 342 341 347 29 33 14 9 11 50 28 20 20 13 49 52 352 297 303 319 323 307 302 290 291 289 317 15 357 291 309 276 275 290 302 309 315 332 330 316 325 332 347 4 359 3 355 335 332
116 128 156 164 164 157 154 129 97 70 59 64 58 138 193 4 37 45 43 52 73 37 26 327 21 103 284 312 311 318 319 323 336 342 351 356 345 339 357 16 11 15 29 35 358 10 32 17 38 36 2 347 343 52 95 213 208 250 268 247 280 296 285 275 272 282 359 339 286 272 275 287 301 306 313 318 333 360 354 21 28 26 36 32 34 26 10 16
146 152 161 159 162 157 140 115 90 62 77 95 42 10 332 355 13 18 28 41 69 109 105 258 3 104 306 306 324 337 342 350 4 357 355 353 341 351 30 22 23 46 35 348 315 7 73 58 35 358 306 291 277 246 206 202 191 224 248 259 279 277 279 282 277 280 359 358 280 261 292 294 298 302 311 316 343 35 31 42 43 31 38 37 42 36 26 26
34 126 143 135 155 150 131 108 77 59 73 47 14 33 118 116 68 39 338 9 305 128 59 306 211 171 304 297 331 349 7 0 351 357 358 356 349 5 3 17 37 29 353 314 296 2 63 59 3 275 251 259 272 258 230 221 165 301 261 288 306 277 272 292 285 288 12 24 280 308 337 311 307 311 316 333 18 34 17 44 50 36 43 38 45 44 30 19
52 112 144 137 153 147 132 101 66 64 61 60 79 85 123 147 105 146 163 64 339 11 30 2 34 353 305 311 345 355 42 4 345 350 359 1 15 25 357 38 57 15 339 358 28 10 44 45 310 268 254 277 320 9 46 32 94 11 321 330 323 298 291 302 295 314 354 13 280 333 346 307 303 305 317 351 26 20 356 26 38 40 56 47 44 48 38 32
56 127 157 154 151 150 143 104 65 63 71 88 104 109 124 121 106 167 103 89 355 349 25 21 40 354 332 14 2 7 54 25 345 341 356 3 15 39 57 39 42 25 356 21 67 58 48 1 298 286 344 0 346 10 38 28 37 21 343 6 318 314 347 314 309 332 329 299 258 317 319 291 306 322 329 345 349 339 341 333 321 28 52 46 52 57 51 50
91 143 164 164 154 157 157 124 70 64 76 105 118 123 130 110 90 95 92 83 13 324 22 6 128 27 336 345 352 8 79 50 349 338 354 9 5 19 68 49 40 33 3 30 92 89 97 272 296 352 22 35 2 2 35 28 358 331 259 315 307 308 313 265 293 326 323 327 324 336 333 303 337 357 322 322 338 334 335 338 342 359 347 321 20 31 41 67
206 164 169 167 161 166 164 141 108 80 78 122 135 135 119 87 55 53 88 73 10 305 334 351 139 13 330 328 345 345 126 41 17 326 349 12 359 358 35 42 71 27 350 63 87 78 42 277 322 6 11 40 49 19 33 41 355 327 265 231 269 291 288 278 311 336 352 4 345 24 19 304 323 341 287 303 339 320 328 352 337 327 331 341 14 11 2 16
213 183 173 173 171 171 165 159 182 174 260 203 152 165 141 95 26 21 75 75 17 307 348 0 38 358 342 342 342 355 81 12 321 344 7 13 349 117 52 345 41 20 328 93 75 77 348 341 29 42 22 33 40 25 356 72 36 339 274 199 223 287 303 304 331 6 21 314 302 54 76 286 317 312 263 285 318 306 319 331 311 305 320 330 332 332 338 336
208 187 178 179 177 174 172 183 210 210 232 247 180 213 212 188 5 11 61 49 12 318 356 335 331 3 346 339 348 70 78 314 323 11 10 10 347 126 70 8 13 357 308 88 47 341 334 350 12 34 36 28 20 0 309 96 59 303 252 152 285 305 306 305 345 74 232 288 316 22 100 241 303 281 256 268 287 303 317 306 302 303 296 296 295 302 317 319
199 187 181 182 179 180 187 182 193 189 179 308 313 279 222 211 309 20 85 67 356 350 21 309 329 358 341 345 11 74 108 304 29 353 345 15 12 28 67 35 98 323 336 91 92 280 334 0 349 1 22 20 353 317 281 131 76 267 261 304 299 293 288 286 101 184 272 5 334 329 44 31 282 276 303 323 252 285 294 279 283 289 287 286 289 301 316 322
192 185 183 184 179 174 168 150 179 299 311 310 328 295 194 180 12 44 79 92 334 346 213 323 347 343 342 360 13 38 13 356 70 324 340 19 14 20 76 17 123 91 354 80 120 268 290 337 253 101 43 356 297 287 249 161 248 277 292 320 329 51 21 84 105 128 20 44 278 275 354 24 290 284 317 349 292 274 270 268 270 274 282 276 280 302 318 327
187 184 182 183 180 177 175 339 344 339 329 337 58 130 150 113 62 58 50 52 351 331 312 11 3 335 1 15 355 359 24 6 340 340 359 17 359 12 75 357 88 90 3 37 77 322 301 296 211 134 77 289 287 295 230 183 250 314 356 343 358 32 28 52 77 78 56 354 262 246 188 89 312 287 279 273 272 253 253 282 290 292 300 289 286 299 305 313
178 180 180 180 185 208 249 325 349 351 5 61 116 117 106 54 61 83 62 307 324 340 354 3 340 0 23 33 353 347 10 342 336 16 18 3 3 14 33 15 29 49 9 7 17 353 345 4 317 275 267 277 340 324 313 234 300 11 24 1 359 355 3 17 357 35 52 297 262 241 226 120 205 269 267 264 275 263 242 252 269 288 301 296 295 303 305 304
161 167 171 176 195 226 267 333 346 14 50 91 107 74 83 39 32 76 321 316 339 343 354 320 314 355 3 19 10 339 338 340 350 46 32 16 35 31 37 29 354 9 12 353 348 350 350 299 308 317 296 136 14 346 339 351 12 21 22 28 25 356 359 5 333 357 349 261 239 226 299 227 222 254 264 274 283 278 250 229 241 273 292 295 294 298 300 293
129 146 155 150 195 252 353 353 15 53 27 35 60 51 80 76 39 330 295 333 17 325 330 292 305 332 347 18 5 330 343 351 346 26 38 58 54 32 28 28 19 26 10 325 351 355 338 311 328 348 319 208 72 37 341 325 350 360 19 69 56 40 10 332 298 326 299 270 271 32 76 263 283 273 247 260 281 279 265 244 248 269 281 287 286 287 295 305
103 120 120 83 56 39 16 5 28 17 355 50 80 52 64 78 47 319 318 287 287 332 343 309 316 336 16 43 338 325 9 347 350 25 15 22 40 12 351 0 15 43 82 46 23 18 358 320 312 343 318 3 56 91 226 241 324 314 189 126 97 123 128 270 244 267 291 291 301 344 123 209 288 287 254 270 290 289 283 270 282 285 275 286 294 295 311 327
101 94 79 60 44 27 14 10 349 331 32 79 72 58 73 102 244 281 297 268 291 325 311 320 3 18 7 343 329 355 6 325 4 41 24 23 45 6 342 336 352 25 69 48 342 29 22 275 259 275 274 127 345 249 149 102 333 289 167 87 28 178 164 194 215 221 264 305 299 298 214 218 251 280 287 317 324 320 332 341 338 316 303 325 322 311 324 328
94 78 61 40 26 11 359 351 343 329 135 92 63 57 101 174 216 169 217 275 320 296 319 349 26 38 348 322 343 352 346 338 10 36 32 28 46 347 337 286 323 22 76 98 284 4 26 276 279 320 328 180 177 215 118 71 295 337 46 1 273 185 141 140 276 289 38 340 281 288 282 293 326 299 301 348 350 335 342 354 349 321 313 328 319 312 328 343
85 74 53 27 14 360 349 354 49 107 114 83 75 93 174 200 177 177 217 332 246 203 50 32 12 20 349 328 335 335 344 359 9 30 27 359 1 355 336 285 294 41 60 121 239 247 146 287 296 321 296 279 187 149 324 291 158 74 300 247 254 58 95 106 297 340 23 303 274 300 285 300 339 301 311 353 350 340 346 353 347 335 342 350 349 353 2 10
81 82 54 19 6 357 357 61 99 97 89 69 76 115 148 135 185 204 195 92 284 50 66 71 7 28 33 3 324 320 344 1 356 19 31 355 347 104 57 312 293 68 24 354 296 276 132 296 297 263 243 290 336 63 343 315 300 113 243 240 58 19 322 16 357 312 326 292 287 299 290 279 238 254 319 346 340 346 348 350 354 0 9 12 13 17 19 17
36 75 44 0 1 16 49 93 92 67 70 74 79 123 153 158 233 225 171 120 75 71 59 38 1 31 50 83 315 306 343 15 347 8 62 40 333 130 100 358 296 31 14 15 155 275 58 345 292 281 268 303 349 33 340 311 324 358 354 328 11 177 201 217 216 198 256 270 280 301 302 291 223 221 334 347 352 6 4 3 12 18 19 18 17 18 16 14
24 80 19 350 357 22 64 71 68 45 62 95 141 138 91 214 267 281 189 125 74 84 60 32 46 26 343 352 308 283 344 31 312 344 82 80 318 325 83 88 297 328 341 15 87 323 2 95 266 288 322 352 344 300 232 267 302 343 2 336 309 282 237 300 272 159 155 231 253 296 296 288 256 206 20 14 18 22 18 17 22 23 19 15 14 12 8 5
44 85 336 350 358 269 64 57 53 40 72 77 105 101 54 139 28 345 350 113 191 194 133 142 125 87 221 347 341 249 315 332 278 256 274 348 14 338 345 131 163 320 340 18 39 4 351 128 249 297 336 340 282 250 203 206 201 181 227 240 236 258 351 335 294 299 104 191 213 259 282 287 314 49 44 34 30 24 22 21 21 18 13 7 5 2 359 356
57 84 321 348 22 91 79 54 13 46 85 59 57 90 52 83 71 0 7 53 63 14 64 106 116 127 172 227 278 239 298 302 275 287 236 248 210 242 267 135 131 97 42 350 328 335 10 100 277 277 270 270 278 288 39 199 161 146 193 199 178 155 114 220 271 284 299 247 202 173 278 281 6 53 47 39 35 25 21 17 11 9 2 354 349 348 349 346
72 108 356 354 5 89 74 61 330 30 65 302 37 61 34 82 85 358 9 15 7 18 25 44 125 47 156 227 309 303 299 250 235 280 269 253 268 227 185 152 137 116 78 346 322 342 358 80 8 292 280 276 286 325 42 67 89 96 264 211 175 218 170 207 230 216 256 277 276 324 279 265 58 53 37 30 25 16 14 10 4 358 350 344 340 337 339 336
105 149 15 17 20 98 84 93 118 63 69 38 50 27 359 80 91 31 13 354 358 70 55 17 318 8 353 41 65 317 315 4 277 313 352 247 277 14 130 138 128 124 83 342 334 349 322 344 32 342 333 329 329 349 350 329 3 291 268 205 139 32 335 244 256 54 246 269 271 260 260 254 53 37 22 18 10 4 4 359 353 350 344 340 333 329 328 326
72 73 335 21 39 62 100 144 135 124 135 89 61 20 0 39 66 63 91 15 13 146 91 357 332 20 356 22 29 336 350 35 303 325 9 292 274 349 53 106 95 132 245 322 337 337 272 233 95 74 331 320 320 319 313 312 325 312 293 297 17 53 304 278 304 298 245 273 276 245 260 281 6 17 11 9 0 353 353 348 343 342 340 335 330 325 319 317
73 54 330 3 30 51 71 100 95 107 138 113 71 14 37 55 351 325 113 58 20 69 56 351 340 24 21 34 27 330 320 8 328 333 350 294 276 304 331 117 119 208 249 2 11 58 88 255 207 176 198 242 257 268 284 319 313 299 298 303 313 329 292 278 294 265 263 291 279 269 298 322 0 6 359 358 353 342 341 344 339 334 333 331 328 321 312 309
92 77 62 0 4 31 34 17 41 73 128 124 100 21 35 21 327 343 49 56 9 32 59 38 33 39 17 21 31 324 304 334 349 334 307 280 271 289 305 110 63 299 279 30 346 80 75 307 255 199 218 243 249 266 287 311 291 280 287 302 314 322 325 318 282 280 293 294 282 321 346 344 354 0 352 348 346 336 330 333 330 323 320 320 318 314 307 305
74 119 170 117 74 55 42 27 55 67 56 73 103 77 34 25 25 30 332 323 7 14 58 42 21 30 354 320 36 341 326 343 347 320 310 309 310 329 342 44 34 330 356 34 341 104 111 272 255 193 244 262 262 267 278 284 270 268 288 320 324 326 333 326 303 309 323 301 299 342 347 337 345 356 347 339 335 328 318 312 308 310 310 311 312 310 305 308
84 106 325 33 89 147 149 57 78 70 48 51 73 53 55 60 50 24 279 350 3 351 45 47 334 333 310 242 135 54 332 347 324 301 293 323 320 339 337 318 334 345 17 23 323 137 136 265 265 206 274 284 279 267 266 265 266 289 341 1 343 338 347 341 327 331 330 303 328 343 336 332 344 346 333 323 313 307 306 300 302 312 315 316 317 314 316 326
126 130 130 60 69 93 56 35 63 68 39 41 64 43 67 83 49 346 325 46 19 338 25 44 304 307 297 192 145 173 235 195 238 258 220 320 309 232 234 265 260 335 2 37 313 323 54 288 305 54 320 302 295 278 266 256 260 300 15 15 359 358 2 356 346 341 333 313 330 339 335 334 340 330 316 309 298 298 309 311 313 319 322 324 326 328 331 333
98 122 134 108 63 8 20 27 62 78 33 14 53 43 34 65 124 161 347 25 145 238 326 289 286 302 330 91 176 259 243 202 221 240 222 230 260 228 221 234 130 350 348 7 332 348 11 299 334 32 346 304 306 333 323 302 289 37 35 14 1 2 359 349 332 316 333 325 327 339 343 332 325 316 307 307 309 311 314 316 318 322 325 328 332 332 330 327
98 96 108 103 75 6 15 20 42 73 63 351 34 146 48 281 243 155 93 310 238 209 215 206 233 314 348 350 332 279 242 220 231 249 244 237 249 253 258 242 139 106 312 319 317 331 88 69 329 7 336 297 308 328 322 317 336 33 41 13 356 353 350 341 325 298 303 328 337 336 327 315 313 314 314 318 322 319 315 318 320 321 325 328 328 326 323 319